SCP
0 0 0 0 -0 -0 -0 0 0 0 0 0 0 0 0 0 0 0 0 0 -0 -0 0 0 0 0 0 0 0 0 0 0 0 0 0 0 0 0 0 0 0 0 0
0 0 0 0 -0 -0 -0 0 0 0 0 0 0 0 0 0 0 0 0 0 0 0 0 0 0 0 0 0 0 0 0 0 0 0 0 0 0 0 0 0 0 0 0
0 0 0 0 0 -0 -0 0 0 0 0 0 0 0 0 0 0 0 0 0 0 0 0 0 0 0 0 0 0 0 0 0 0 0 0 0 0 0 0 0 0 0 0
0 0 0 0 0 0 0 0 0 0 0 0 0 0 0 0 0 0 0 0 0 0 0 0 0 0 0 0 0 0 0 0 0 0 0 0 0 0 0 0 0 0 0
0 0 0 0 0 0 0 0 0 0 0 0 0 0 0 0 0 0 0 0 0 0 0 0 0 0 0 0 0 0 0 0 0 0 0 0 0 0 0 0 0 0 0
0 0 0 0 0 0 0 0 0 0 0 0 0 0 0 0 0 0 0 0 0 0 0 0 0 0 0 0 0 0 0 0 0 0 0 0 0 0 0 0 0 0 0
0 0 0 0 0 0 0 0 0 0 0 0 0 0 0 0 0 0 -0 0 0 0 -0 -0 -0 -0 -0 -0 0 0 0 0 0 0 0 0 0 0 0 0 0 0 0
0 0 0 0 0 0 0 0 0 0 0 0 0 0 0 0 0 0 -0 -0 -0 -0 -0 0 0 0 -0 -0 -0 -0 0 0 0 0 0 0 0 0 0 0 0 0 0
0 0 0 0 0 0 0 0 0 0 0 0 0 0 0 0 0 0 0 0 -0 0 0 0 0 0 -0 -0 0 0 0 -0 0 0 0 0 0 0 0 0 0 0 0
0 0 0 0 0 0 0 0 0 0 0 0 0 0 0 0 0 0 0 0 0 0 0 0 0 0 0 -0 0 0 0 -0 0 0 0 0 0 0 0 0 0 0 0
0 0 0 0 0 0 0 0 0 0 0 0 0 0 0 0 0 0 0 0 0 0 0 0 0 0 0 0 0 0 0 0 0 0 0 0 0 0 0 0 0 0 0
0 0 0 0 0 0 0 0 0 0 0 0 0 0 0 0 0 0 0 0 0 0 0 0 0 0 0 0 0 0 0 0 0 0 0 0 0 0 0 0 0 0 0
0 0 0 0 0 0 0 0 0 0 0 0 0 0 0 0 0 0 0 0 0 0 0 0 0 0 0 0 0 0 0 0 0 0 0 0 0 0 0 0 0 0 0
0 0 0 0 0 0 0 0 0 0 0 0 0 0 0 0 0 0 0 0 0 0 0 0 0 0 0 0 0 0 0 0 0 0 0 0 0 0 0 0 0 0 0
0 0 0 0 0 0 0 0 0 0 0 0 0 0 0 0 0 0 0 0 0 0 0 0 0 0 0 0 0 0 0 0 0 0 0 0 0 0 0 0 0 0 0
0 0 0 0 0 0 0 0 0 0 0 0 0 0 0 0 0 0 0 0 0 0 0 0 0 0 0 0 0 0 0 0 0 0 0 0 0 0 0 0 0 0 0
0 0 0 1 1 1 1 1 0 0 0 0 0 0 0 0 0 0 0 0 0 0 0 0 0 0 0 0 0 0 0 0 0 0 0 0 0 0 0 0 0 0 0
0 0 0 0 1 1 1 1 1 1 1 0 0 0 0 0 0 0 0 0 0 0 0 0 0 0 0 0 0 0 0 0 0 0 0 0 0 0 0 0 0 0 0
0 0 0 0 1 1 1 1 1 1 1 1 1 0 0 0 0 0 0 0 0 0 0 0 0 0 0 0 0 0 0 0 0 0 0 0 0 0 0 0 0 0 0
0 0 0 0 0 1 1 1 1 1 1 1 1 1 1 0 0 0 0 0 0 0 0 0 0 0 0 0 0 0 0 0 0 0 0 0 0 0 0 0 0 0 0
0 0 0 0 0 0 1 1 1 1 1 1 1 1 1 1 0 0 0 0 0 0 0 0 0 0 0 0 0 0 0 0 0 0 0 0 0 0 0 0 0 0 0
0 0 0 0 0 0 0 1 1 2 2 2 1 1 1 1 1 0 0 0 0 0 0 0 0 0 0 0 0 0 0 0 0 0 0 0 0 0 0 0 0 0 0
0 0 0 0 0 0 0 0 1 1 2 2 2 2 1 1 1 1 0 0 0 0 0 0 0 0 0 0 0 0 0 0 0 0 0 0 0 0 0 0 0 0 0
0 0 0 0 0 0 0 0 0 1 1 1 2 2 2 1 1 1 0 0 0 0 0 0 0 0 0 0 0 0 0 0 0 0 0 0 0 0 0 0 0 0 0
0 0 0 0 0 0 0 0 0 0 1 1 1 2 2 2 1 1 1 0 0 0 0 0 0 0 0 0 0 0 0 0 0 0 0 0 0 0 0 0 0 0 0
0 0 0 0 0 0 0 0 0 0 0 1 1 2 2 2 2 1 1 0 0 0 0 0 0 0 0 0 0 0 0 0 0 0 0 0 0 0 0 0 0 0 0
Wind_Speed
10 14 15 13 12 12 13 14 14 14 14 14 14 14 12 11 9 7 6 5 4 6 8 11 12 13 13 12 12 12 12 13 13 13 12 11 10 10 9 7 3 7 7
13 15 15 13 13 12 13 14 14 14 14 14 14 13 12 10 9 7 6 6 6 8 10 12 13 13 13 12 12 11 12 12 11 11 8 8 9 9 8 7 7 7 6
15 15 16 12 12 12 12 14 14 15 15 14 14 13 11 10 8 7 7 7 9 11 12 13 13 13 12 11 11 10 10 10 9 7 2 7 9 8 7 6 5 5 5
14 14 14 14 13 13 13 14 15 15 15 14 13 12 11 10 9 8 8 9 11 12 13 13 12 12 11 10 9 9 8 8 7 1 4 7 7 7 5 4 3 3 3
13 13 14 13 13 13 13 13 14 15 15 14 13 12 11 10 9 9 9 10 11 11 12 12 11 10 9 9 8 8 7 7 4 2 7 6 6 7 6 4 3 1 2
13 12 14 12 12 12 12 12 13 14 14 14 14 12 11 10 10 10 9 9 10 10 10 10 9 8 8 7 7 6 7 5 4 6 6 5 6 6 6 6 5 5 6
12 11 13 12 12 11 11 11 11 13 14 14 14 13 12 11 10 10 9 9 9 9 9 9 9 8 7 6 5 5 6 2 3 5 5 5 6 6 8 9 10 11 13
12 11 12 12 10 10 9 9 9 12 13 14 14 13 12 11 11 10 9 8 9 9 9 9 8 7 6 5 5 5 4 1 3 4 4 4 6 4 8 10 12 15 16
11 11 11 11 11 10 8 8 8 10 12 13 13 12 11 11 11 10 9 8 8 8 8 8 8 7 6 6 6 6 5 2 1 3 2 2 4 5 10 13 15 16 16
10 11 11 11 10 11 10 8 7 8 9 11 11 10 10 10 10 10 9 7 7 7 8 8 9 8 7 7 7 6 4 3 2 2 1 3 5 9 13 14 15 14 14
9 9 10 10 10 9 9 9 9 8 8 10 10 10 10 9 10 9 8 6 6 7 8 9 10 9 8 8 7 4 3 1 2 1 3 7 9 13 14 13 13 13 13
10 10 9 9 9 9 7 8 8 9 9 10 10 11 9 7 6 6 9 6 6 7 8 10 10 8 4 4 5 4 1 2 2 3 6 10 12 13 12 11 11 11 11
9 10 10 9 9 9 7 7 6 6 7 9 10 11 9 7 6 6 6 7 7 8 7 9 8 5 4 3 2 2 2 2 2 4 7 10 11 11 10 10 10 10 10
9 10 10 11 10 10 8 7 7 6 6 7 9 11 9 7 7 7 6 7 6 5 6 6 4 5 5 5 4 4 4 3 3 3 7 9 10 10 9 9 8 9 9
10 11 12 12 12 11 9 7 8 8 8 9 9 10 11 8 8 8 7 7 7 6 6 6 6 6 6 5 4 4 5 5 5 5 6 8 8 9 8 7 7 7 7
12 12 12 14 14 13 11 10 9 9 9 9 9 11 13 10 9 9 8 8 8 7 6 6 7 6 5 4 5 5 5 5 5 6 6 7 7 7 8 7 7 6 7
11 12 13 14 15 15 14 13 10 9 9 10 10 12 14 12 11 10 9 8 8 8 8 6 7 5 4 4 5 5 5 6 6 6 6 5 6 6 7 7 7 6 6
11 11 12 11 14 16 15 13 10 10 10 10 10 11 15 15 14 11 10 9 9 8 8 7 7 6 6 5 5 5 5 5 7 6 6 6 5 5 7 7 6 6 5
10 11 11 12 14 15 15 13 12 10 10 10 9 10 13 16 16 13 11 10 10 9 8 8 8 7 7 6 5 5 5 6 6 6 7 7 6 6 6 7 7 5 4
9 9 10 11 13 13 12 11 9 10 10 10 10 12 14 13 16 15 11 12 12 10 9 9 10 8 6 6 5 5 5 5 6 7 8 7 6 7 7 7 6 5 4
6 8 9 10 11 10 9 10 11 12 12 11 12 14 15 14 15 15 12 13 13 12 12 13 10 10 7 7 5 5 5 6 7 7 7 7 8 8 8 7 5 5 4
4 5 7 8 9 10 10 10 11 12 11 12 10 12 14 15 15 13 16 13 14 12 14 15 13 9 7 8 7 5 5 6 7 8 8 7 9 8 8 8 7 6 4
5 6 5 7 8 9 10 9 9 9 10 9 11 12 15 16 16 15 17 15 14 14 13 16 16 14 10 9 9 7 6 7 6 7 10 9 9 8 8 8 8 7 5
6 6 6 7 7 7 7 9 13 12 13 15 12 12 14 16 16 16 16 16 15 13 14 15 16 14 13 10 8 7 5 2 5 6 6 8 9 9 9 7 7 7 6
7 7 7 7 7 6 6 8 11 13 13 12 12 14 14 13 15 16 16 15 15 14 16 16 16 16 13 12 9 7 6 4 5 5 5 7 7 8 8 8 6 6 6
8 8 8 8 8 7 6 7 9 12 14 14 15 13 12 10 11 15 15 15 15 14 16 16 16 18 15 15 12 9 8 7 8 6 5 5 6 6 7 6 6 5 5
Wind_Direction
155 151 148 152 153 153 152 149 145 142 140 137 132 127 124 121 119 116 114 108 106 115 111 104 100 96 90 87 84 83 81 79 76 70 65 67 77 81 80 71 49 81 68
148 149 146 153 155 156 154 150 145 142 139 135 131 129 126 124 122 122 121 108 100 112 109 101 96 93 92 91 90 88 86 83 79 75 75 87 77 75 77 66 35 60 66
149 147 151 154 155 155 152 147 143 142 139 137 135 131 128 125 124 125 124 111 94 98 100 98 94 94 94 94 92 90 90 89 86 87 130 93 90 79 76 68 62 65 64
150 151 155 151 156 154 151 148 148 146 144 142 138 134 130 127 126 124 121 112 96 92 92 93 93 96 98 96 93 90 92 94 95 176 94 76 79 74 77 71 59 54 46
153 154 145 151 154 153 151 152 154 153 150 146 141 136 132 130 128 124 113 103 96 92 92 93 93 96 97 95 91 90 95 101 123 131 80 77 74 65 71 67 60 65 25
156 155 146 151 150 151 153 157 160 159 156 149 144 139 136 134 130 121 111 104 101 99 98 98 98 98 97 94 90 90 98 119 181 87 81 74 68 63 71 65 64 72 67
158 155 150 150 151 155 159 162 166 164 159 153 148 144 141 136 130 126 121 118 115 112 111 109 106 101 96 91 89 92 99 114 93 91 80 73 55 58 70 71 73 76 72
159 158 152 153 153 159 166 169 173 170 162 158 154 150 146 140 136 136 135 132 128 124 121 117 111 103 94 89 89 94 101 225 121 99 85 79 38 62 84 83 83 81 75
164 164 163 165 166 168 173 177 178 173 166 161 159 156 150 145 144 145 145 143 138 134 127 121 114 105 97 92 94 98 98 14 155 94 86 71 40 84 95 92 89 82 77
174 174 173 174 176 178 178 176 176 168 166 163 161 157 151 150 153 153 161 152 146 142 135 127 117 111 103 98 100 101 111 225 98 126 125 88 89 101 98 94 87 82 78
186 186 184 181 180 183 181 170 180 171 166 167 167 157 165 177 170 168 164 148 154 151 144 132 123 118 115 108 103 115 204 198 113 99 97 97 107 102 98 92 88 84 80
192 195 194 191 189 188 182 180 190 188 183 192 186 180 191 189 183 174 145 163 156 145 140 134 131 140 168 140 132 194 171 148 135 111 101 106 106 102 97 93 89 86 82
198 199 203 200 199 197 191 193 192 192 192 200 196 190 193 190 187 190 174 174 175 171 166 146 166 173 174 147 160 158 132 147 131 120 109 110 109 106 101 97 93 88 85
206 206 207 208 207 207 207 202 201 200 197 200 200 200 196 194 198 197 197 191 189 191 187 191 198 175 174 171 174 163 162 169 154 128 109 112 113 112 107 102 97 93 89
215 213 211 211 212 210 212 216 214 212 206 204 203 205 205 200 202 203 204 199 202 198 194 201 202 187 185 176 174 176 173 169 165 147 122 107 111 116 115 111 105 100 94
222 219 213 212 214 213 212 214 218 219 215 216 208 208 208 208 206 206 206 205 204 201 202 203 205 194 190 185 179 180 179 173 176 170 146 124 106 117 125 121 112 103 96
235 229 221 217 214 215 216 216 218 220 220 220 216 213 211 212 210 208 208 205 205 201 198 203 198 197 190 185 187 185 185 186 181 177 169 156 139 122 131 130 121 111 97
247 240 234 224 220 218 219 218 218 219 220 223 221 217 215 214 213 211 210 207 204 197 194 192 190 191 188 193 189 184 188 187 194 184 177 177 165 155 140 131 127 117 102
255 249 241 233 229 225 222 221 220 220 221 223 222 222 218 216 214 212 212 207 201 198 197 193 195 196 193 190 188 186 191 192 192 192 190 184 175 176 159 131 120 108 108
265 259 252 243 237 235 229 225 223 224 224 223 222 222 221 218 216 215 213 209 200 200 198 195 193 195 194 177 173 185 197 201 203 202 197 188 185 185 184 169 164 137 123
275 266 258 252 244 237 231 224 221 223 225 225 223 223 222 221 218 215 213 208 202 204 202 198 189 186 182 168 166 184 197 211 215 207 205 199 194 191 192 192 195 190 170
314 294 277 262 255 244 236 233 230 230 229 228 226 225 223 221 219 216 215 210 204 206 203 199 188 187 177 183 185 181 198 199 212 212 208 210 204 193 200 201 199 201 204
356 332 309 292 276 261 252 244 239 236 235 230 227 225 223 221 219 217 219 216 208 206 204 199 194 191 185 191 201 196 198 206 179 189 208 208 208 203 202 199 201 199 198
0 343 325 311 295 282 265 248 238 232 232 231 230 229 226 221 220 219 219 219 213 211 209 203 201 200 193 189 200 226 247 223 183 175 192 207 209 212 207 195 196 192 191
356 345 333 324 314 302 281 261 252 245 244 243 238 236 232 224 220 217 218 217 215 213 214 207 203 204 201 196 188 184 201 214 230 198 180 183 199 209 205 198 191 187 183
353 347 339 330 325 318 301 279 258 254 252 249 245 242 238 231 222 219 217 216 216 215 215 211 205 208 207 205 197 190 185 185 197 203 189 172 185 183 191 192 193 187 181